Blakrog, Denmark

10:21 AM CET on February 22, 2017 (GMT +0100)
Sonderborg

Weather History for EKSB - January, 2013

Change the Weather History Date:

Thursday, January 3, 2013

  Actual Average Record
Temperature  
Mean Temperature 47 °F -  
Max Temperature 50 °F 37 °F 50 °F (2013)
Min Temperature 44 °F 32 °F 17 °F (1997)
Degree Days  
Heating Degree Days 18    
Moisture  
Dew Point 45 °F    
Average Humidity 89    
Maximum Humidity 100    
Minimum Humidity 81    
Precipitation  
Precipitation 0.00 in - - ()
Sea Level Pressure  
Sea Level Pressure 30.07 in    
Wind  
Wind Speed 12 mph ()    
Max Wind Speed 20 mph    
Max Gust Speed 31 mph    
Visibility 4.6 miles    
Events Rain    
Averages and records for this station are not official NWS values.
T = Trace of Precipitation, MM = Missing Value Source: Averaged Metar Reports

Daily Weather History Graph

Daily Weather History Graph

Search for Another Location

Airport or City:

Trip Planner

Search our weather history database for the weather conditions in past years. The results will help you decide how hot, cold, wet, or windy it might be!

Date:

Astronomy

Jan. 03, 2013 Rise Set
Actual Time 8:44 AM CET 4:06 PM CET
Civil Twilight 8:00 AM CET 4:50 PM CET
Nautical Twilight 7:12 AM CET 5:38 PM CET
Astronomical Twilight 6:28 AM CET 6:22 PM CET
Moon 11:34 PM CET (1/3) 10:43 AM CET (1/3)
Length of Visible Light 8h 50m
Length of Day
7h 21m
Waning Gibbous, 68% of the Moon is Illuminated
Jan 3
Waning Gibbous
Jan 5
Last Quarter
Jan 11
New
Jan 19
First Quarter
Jan 27
Full

Hourly Weather History & Observations

Time (CET) Temp. Windchill Dew Point Humidity Pressure Visibility Wind Dir Wind Speed Gust Speed Precip Events Conditions
7:50 AM 48.2 °F - 46.4 °F 93% 29.98 in 2.5 mi West 10.4 mph - N/A Rain Light Rain
8:22 AM 48.2 °F - 46.4 °F 93% 29.98 in 2.5 mi West 13.8 mph - N/A   Scattered Clouds
8:50 AM 48.2 °F - 46.4 °F 93% 29.98 in 2.5 mi West 12.7 mph - N/A   Mostly Cloudy
9:20 AM 48.2 °F - 46.4 °F 93% 29.98 in 3.1 mi West 12.7 mph - N/A   Mostly Cloudy
9:50 AM 48.2 °F - 46.4 °F 93% 30.01 in 3.7 mi West 12.7 mph - N/A   Mostly Cloudy
10:20 AM 48.2 °F - 46.4 °F 93% 30.01 in 3.1 mi West 12.7 mph - N/A   Drizzle
10:50 AM 48.2 °F - 48.2 °F 100% 30.01 in 3.1 mi West 12.7 mph - N/A   Drizzle
11:20 AM 48.2 °F - 46.4 °F 93% 30.04 in 4.3 mi West 12.7 mph - N/A   Mostly Cloudy
11:50 AM 50.0 °F - 46.4 °F 87% 30.04 in 4.3 mi West 12.7 mph 25.3 mph N/A   Mostly Cloudy
12:20 PM 50.0 °F - 46.4 °F 87% 30.04 in 4.3 mi West 15.0 mph - N/A   Mostly Cloudy
12:51 PM 50.0 °F - 46.4 °F 87% 30.04 in 4.3 mi West 13.8 mph - N/A   Mostly Cloudy
2:08 PM 50.0 °F - 46.4 °F 87% 30.04 in 6.2 mi West 15.0 mph - N/A   Scattered Clouds
2:50 PM 48.2 °F - 44.6 °F 87% 30.04 in 6.2 mi West 18.4 mph 29.9 mph N/A   Scattered Clouds
3:50 PM 48.2 °F - 42.8 °F 82% 30.09 in 6.2 mi WNW 19.6 mph 31.1 mph N/A   Partly Cloudy
4:50 PM 46.4 °F 39.2 °F 42.8 °F 87% 30.12 in 6.2 mi WNW 18.4 mph 29.9 mph N/A   Scattered Clouds
6:52 PM 46.4 °F 39.2 °F 41.0 °F 81% 30.18 in - WNW 18.4 mph - N/A   Clear
7:50 PM 46.4 °F 39.8 °F 41.0 °F 81% 30.21 in 6.2 mi WNW 16.1 mph - N/A   Scattered Clouds
8:50 PM 44.6 °F 38.1 °F 41.0 °F 87% 30.21 in 6.2 mi West 13.8 mph - N/A   Mostly Cloudy
9:50 PM 44.6 °F 38.4 °F 41.0 °F 87% 30.24 in 6.2 mi WNW 12.7 mph - N/A   Mostly Cloudy
10:50 PM 44.6 °F 39.2 °F 41.0 °F 87% 30.24 in 6.2 mi West 10.4 mph - N/A   Mostly Cloudy